Temperature
32 33 33 33 33 33 33 33 32 32 31 31 31 30 30 28 28 27 26 25 24 24 23 21 21 20 20 19 19 19 19 19 18 18 18 18 18 18 18 18 18 18 17 17
32 33 33 33 33 33 32 32 32 31 31 31 31 31 30 29 28 28 27 26 25 24 23 21 21 20 20 20 19 19 19 19 19 18 18 18 18 17 18 18 17 17 17 17
32 33 32 32 32 32 32 32 32 31 30 31 31 30 30 29 28 27 27 26 25 24 23 22 21 20 20 20 19 19 19 19 19 18 18 18 18 18 18 17 17 17 17 17
32 32 32 32 32 33 32 33 32 31 31 32 31 31 31 30 29 29 28 27 26 25 24 22 21 21 20 20 19 19 19 19 19 19 18 18 18 18 18 17 17 17 17 17
32 32 32 32 32 32 32 32 32 32 32 32 31 31 32 30 30 29 29 27 26 25 24 23 22 21 20 20 19 19 19 19 19 19 18 18 18 18 18 17 17 17 17 17
32 32 32 32 32 32 31 31 31 31 32 31 31 31 31 31 30 30 29 27 26 25 24 23 22 21 20 20 20 19 19 19 19 19 18 18 18 18 18 17 17 17 17 17
31 31 32 32 31 31 32 31 31 30 30 31 31 30 31 31 31 30 29 27 26 25 24 23 22 21 21 20 20 19 19 19 19 18 18 18 18 18 17 17 17 17 17 17
30 30 31 32 32 31 32 32 31 30 30 31 30 31 32 31 30 29 28 27 26 25 24 23 22 21 21 20 20 19 19 19 19 18 18 18 18 17 17 17 17 17 17 17
31 31 31 31 32 32 31 32 33 32 31 31 31 31 31 30 29 29 28 27 26 25 24 24 23 22 21 20 20 20 19 19 18 18 18 18 18 17 17 17 17 17 17 17
31 30 31 30 31 30 32 32 32 31 30 30 30 31 31 30 30 29 29 27 26 25 24 24 23 22 21 21 20 19 19 19 18 18 18 18 17 17 17 17 17 17 17 17
31 30 30 30 30 31 30 31 31 31 31 30 30 31 32 31 30 30 29 27 26 25 25 24 23 22 21 21 20 20 19 19 18 18 18 18 17 17 17 17 17 17 17 17
30 30 30 30 31 31 31 31 31 30 30 30 31 31 31 31 30 29 29 27 26 25 25 24 23 22 21 21 20 19 19 19 18 18 18 18 17 17 17 17 17 17 17 17
29 29 28 29 29 30 30 30 31 31 31 30 30 31 30 29 29 28 28 27 25 25 24 23 22 22 21 20 20 20 19 19 18 18 18 18 18 17 17 17 17 17 16 16
27 29 29 29 30 30 30 30 30 31 31 30 30 31 30 29 29 28 27 26 25 24 23 23 22 21 21 20 20 19 19 19 18 18 18 17 17 17 17 17 16 16 16 16
28 28 28 29 30 30 30 30 30 30 30 31 31 31 30 30 29 27 26 25 25 24 23 22 22 21 20 20 19 19 19 19 18 18 17 17 17 17 17 16 16 16 16 16
27 27 28 28 29 29 29 30 29 29 30 30 30 30 30 29 28 27 26 25 24 23 23 22 21 20 20 19 19 19 19 19 18 18 18 17 17 17 17 16 16 16 16 16
27 26 27 28 28 28 28 29 29 29 30 30 29 30 29 28 27 26 25 24 23 23 22 21 20 20 19 19 19 19 19 18 18 18 17 17 17 17 16 16 16 16 16 15
25 25 26 28 27 26 28 29 29 29 29 29 28 28 28 27 26 25 24 23 23 22 21 21 20 20 19 19 19 19 19 18 18 17 17 17 17 16 16 16 16 15 15 15
25 24 26 27 27 27 27 28 28 28 28 28 28 27 26 25 25 25 23 22 22 21 20 20 20 19 19 19 19 19 18 18 18 17 17 17 17 16 16 16 15 15 15 15
24 24 26 26 26 26 27 28 27 27 27 27 26 26 25 25 27 26 22 21 21 20 20 20 19 19 19 19 19 18 18 18 18 17 17 17 16 16 15 15 15 15 15 15
23 23 25 25 25 27 27 26 26 26 26 25 25 24 24 24 24 22 20 20 19 19 19 19 19 18 19 18 18 18 18 18 17 17 16 16 16 16 15 15 15 15 15 14
24 25 24 25 25 26 25 26 26 25 23 23 23 23 22 22 21 20 19 19 19 19 18 18 18 18 18 18 18 18 17 17 16 16 16 16 16 15 15 15 15 14 14 14
24 24 25 25 25 23 23 23 22 22 22 22 22 21 21 20 19 19 18 18 18 18 18 18 18 18 18 18 17 17 17 17 16 16 16 16 15 15 15 14 14 14 14 13
22 21 23 23 23 22 22 21 21 21 21 21 20 20 20 19 19 18 18 18 18 18 18 17 17 17 17 17 17 17 17 16 16 16 15 15 15 15 14 14 14 14 13 13
22 21 22 22 22 21 21 20 20 19 20 20 19 19 19 19 18 18 17 17 17 17 17 17 17 17 16 16 16 16 16 16 15 15 15 15 14 14 14 14 14 13 13 13
21 21 22 22 21 21 20 19 19 19 19 19 19 19 18 18 18 17 17 17 17 17 16 16 16 16 16 16 16 16 16 15 15 15 14 14 14 14 13 13 13 13 13 12
Wind_Speed
6 9 9 7 6 3 3 4 3 3 3 4 4 3 5 7 8 7 7 6 6 5 5 5 5 5 5 5 5 5 5 4 4 3 3 3 3 3 3 3 3 4 4 4
9 10 6 4 5 6 6 6 5 5 3 3 3 3 4 7 8 7 7 7 6 6 6 6 6 6 6 6 5 5 5 5 5 3 2 2 2 2 2 2 2 4 4 4
11 5 5 7 9 9 8 7 5 5 5 5 4 5 6 7 7 7 7 7 7 7 7 7 8 7 7 7 6 5 4 4 4 3 3 2 2 2 2 2 3 3 4 5
8 6 7 9 10 9 8 5 5 6 6 3 4 3 4 7 7 8 8 8 8 8 7 8 8 8 8 7 6 5 5 4 4 4 3 3 2 2 2 2 2 2 3 4
8 8 9 9 8 8 4 4 5 6 6 5 4 6 1 6 6 7 8 8 8 8 8 8 9 8 8 7 6 6 5 5 4 4 4 3 3 2 1 1 2 3 3 4
6 5 6 6 4 5 8 7 5 7 8 7 4 6 3 3 3 5 7 8 8 8 8 9 8 8 7 7 7 6 6 5 5 4 4 3 3 2 2 2 2 3 2 3
9 8 6 6 8 9 9 9 7 7 7 5 2 5 3 2 2 3 6 9 9 9 9 9 9 9 8 8 7 6 6 5 4 4 4 4 3 3 3 2 2 3 2 2
13 13 11 9 9 9 11 11 9 7 6 4 5 5 1 3 3 3 6 9 9 9 9 9 9 9 8 8 7 6 6 5 4 4 4 3 3 3 2 2 2 2 3 3
11 10 8 6 6 8 10 11 9 9 8 7 4 3 4 4 5 6 8 9 10 9 10 10 10 9 8 8 7 6 6 5 4 4 3 3 3 2 2 2 2 2 2 2
7 9 9 7 7 3 7 8 7 9 8 8 6 6 4 5 7 8 9 10 10 10 10 10 10 9 9 8 7 6 5 5 4 3 3 2 2 2 2 2 1 2 1 1
9 9 10 10 10 10 8 9 8 8 8 9 7 3 1 4 6 9 10 10 11 10 10 10 9 9 9 8 8 7 6 5 4 3 3 2 2 2 2 1 0 1 1 1
8 8 10 10 6 5 10 11 11 10 8 8 9 3 5 2 4 6 9 10 10 10 10 10 10 10 9 8 8 7 6 5 4 4 3 3 2 2 2 1 1 0 0 0
7 8 10 11 10 8 9 9 11 10 8 9 10 5 6 4 4 5 7 9 9 10 10 10 10 9 9 8 7 7 6 5 5 5 4 3 3 3 2 1 1 1 1 0
6 9 12 13 8 9 10 10 11 13 11 10 10 7 2 3 4 4 6 8 9 9 9 9 9 8 8 8 7 7 6 5 5 5 4 3 3 3 2 2 2 1 1 1
6 10 11 10 6 8 10 11 11 12 11 11 8 7 5 3 4 5 5 7 8 9 9 9 9 8 8 8 7 6 6 5 5 4 4 3 3 2 2 2 2 2 2 2
4 8 10 11 10 10 11 12 12 12 11 11 10 8 4 1 3 5 6 6 7 8 8 8 8 8 8 8 7 6 5 5 5 4 4 3 3 3 2 3 3 3 2 2
5 7 10 12 11 11 14 13 13 12 10 10 11 7 3 3 4 5 6 5 5 6 7 7 7 7 7 7 7 6 5 4 4 4 3 3 3 3 3 3 3 3 2 2
7 8 8 10 10 15 8 5 8 10 9 7 7 5 4 3 3 4 4 4 4 5 6 6 6 6 6 7 7 6 6 6 5 4 3 3 3 3 3 3 3 2 2 2
8 8 9 11 14 13 8 6 7 9 8 5 5 4 2 1 4 5 3 2 4 5 5 6 6 6 6 7 7 7 6 6 5 4 3 3 3 3 3 3 3 3 2 2
7 9 10 11 13 14 7 6 5 7 9 3 3 3 2 3 6 3 1 1 3 4 5 5 5 6 6 6 7 7 6 5 5 4 4 3 3 3 3 2 3 3 3 3
10 9 13 13 12 9 3 3 6 10 4 1 2 2 3 3 3 0 2 2 3 4 5 5 5 5 6 6 7 7 6 6 5 5 5 4 4 4 3 3 2 3 3 3
10 9 11 12 13 9 2 4 5 1 3 2 2 2 2 1 1 3 3 3 4 4 5 5 5 5 6 6 6 6 5 4 5 5 5 4 4 3 3 3 3 3 3 4
8 6 6 7 5 2 2 1 1 2 3 3 2 2 1 1 2 3 3 3 3 3 4 4 5 6 6 6 6 5 5 5 5 5 5 5 5 4 3 3 4 4 3 2
5 3 5 5 4 2 2 1 2 3 3 4 3 2 2 2 2 3 3 2 3 3 3 3 5 6 6 5 5 5 5 5 5 6 5 5 5 4 4 3 3 3 2 2
4 5 6 7 5 4 4 3 4 4 3 3 2 2 3 4 4 3 3 3 2 2 2 3 4 6 6 5 5 5 5 5 5 5 5 5 5 5 4 4 3 2 2 1
6 6 8 6 5 5 4 4 5 4 3 3 2 1 2 3 3 3 2 2 2 2 2 3 5 6 6 6 5 5 5 5 6 5 5 4 4 4 4 5 5 7 6 6
Wind_Direction
201 215 212 205 220 239 208 205 179 139 151 203 215 203 172 178 191 190 189 187 186 184 170 163 162 162 162 168 174 179 182 173 186 191 207 209 217 227 225 225 213 220 231 227
206 214 209 198 197 205 207 206 176 152 158 215 214 216 189 190 201 199 194 191 191 185 172 166 166 168 169 170 174 175 177 174 187 183 202 225 261 255 244 247 224 235 238 241
219 186 160 186 193 203 210 219 199 175 170 201 232 203 189 187 198 199 201 195 191 189 182 173 172 173 172 173 177 178 174 172 185 184 193 191 207 240 237 239 234 245 251 244
212 178 182 198 201 214 207 209 206 193 212 205 249 273 171 183 194 199 199 194 190 185 184 177 174 176 176 174 174 173 170 174 180 191 203 213 232 256 277 266 250 250 251 249
191 186 196 205 205 222 197 169 197 213 238 256 234 278 171 171 199 199 194 191 188 183 181 176 174 173 172 172 171 168 169 171 178 196 199 219 240 254 267 261 254 254 240 245
187 184 213 203 177 180 146 154 175 221 242 250 256 272 268 176 200 186 181 180 178 175 173 168 167 166 169 169 170 169 169 177 183 192 201 221 242 256 266 277 284 266 246 244
192 192 186 182 165 170 194 206 215 223 229 241 198 255 278 87 151 172 170 168 167 169 169 167 167 169 170 171 173 171 174 182 185 192 204 221 236 238 240 261 267 281 276 260
198 194 188 197 210 199 211 229 243 255 255 222 184 249 251 125 145 157 159 157 160 166 169 168 168 168 169 171 172 173 177 183 186 194 207 223 232 238 247 259 286 277 287 291
207 197 174 193 213 218 208 231 256 258 265 269 229 232 214 173 177 168 159 158 161 164 165 166 165 165 166 167 170 172 171 178 185 193 199 209 217 242 260 260 267 274 285 281
218 205 179 171 178 202 246 224 229 247 254 257 240 238 249 193 189 177 170 167 163 163 164 164 163 163 163 163 163 165 167 167 174 188 203 181 190 205 229 257 287 306 299 303
222 215 189 189 209 203 194 212 230 244 256 262 258 240 181 206 195 184 177 171 168 168 166 163 161 159 160 159 159 161 162 162 169 176 178 186 182 182 183 201 274 332 323 325
215 224 211 204 201 245 226 225 221 235 236 249 269 262 94 143 173 184 178 170 170 169 162 159 159 158 160 160 160 161 164 162 163 162 164 171 176 175 177 164 155 132 20 333
202 216 213 203 195 201 216 220 228 238 238 242 251 236 114 125 146 163 170 165 166 167 163 160 160 162 165 164 163 164 167 162 160 159 165 169 175 169 172 172 155 129 129 86
222 224 233 232 219 199 206 209 217 230 237 236 245 260 186 170 168 161 162 168 169 168 168 168 163 166 168 165 163 166 166 163 166 168 169 170 176 176 175 168 154 139 135 118
226 223 229 243 236 223 220 218 216 229 247 251 246 253 268 233 201 180 166 163 167 171 175 176 171 168 168 166 167 168 165 162 164 168 168 170 168 163 168 163 148 139 138 128
225 227 220 228 226 231 235 227 224 229 237 245 253 257 282 260 182 178 173 169 174 177 176 173 172 170 171 171 169 166 165 163 165 171 174 172 161 154 157 154 141 134 132 117
212 217 222 225 216 229 234 229 227 226 232 241 248 261 275 240 201 191 182 177 177 178 173 173 173 174 174 171 168 166 159 153 157 164 168 161 155 154 157 156 148 145 143 129
217 223 224 227 215 233 228 211 223 227 232 245 254 270 271 258 219 182 172 175 176 173 169 173 176 177 174 167 160 158 153 157 160 161 164 161 164 163 160 158 156 153 149 142
219 218 225 227 227 229 214 205 216 222 229 246 257 270 274 238 181 171 138 170 175 173 167 167 174 176 169 165 159 155 160 162 163 163 167 168 166 166 166 167 167 161 156 149
198 219 227 226 235 232 213 190 216 228 225 216 254 265 244 204 224 193 132 162 157 156 155 157 162 162 159 159 160 157 159 161 165 166 161 159 157 165 172 175 172 161 158 150
190 205 222 226 232 234 204 175 197 223 225 41 280 267 230 220 279 161 156 138 138 146 147 147 149 150 149 151 155 156 159 167 167 159 153 152 151 156 158 160 157 151 150 140
208 207 214 223 231 225 127 182 217 283 4 333 299 278 239 221 108 122 128 129 133 136 145 147 144 141 143 147 150 154 159 159 154 153 151 148 147 148 146 155 153 151 155 149
220 231 226 228 232 67 126 150 14 341 320 315 307 312 241 203 164 143 133 128 130 131 141 147 145 143 143 147 149 153 155 154 153 151 145 142 140 137 138 146 149 152 158 158
210 245 236 236 228 228 225 296 328 329 322 310 302 286 226 202 183 164 150 142 138 132 139 150 156 154 151 152 152 152 152 157 158 155 149 147 146 144 137 142 143 146 149 158
229 218 225 231 234 236 234 278 305 313 312 310 298 262 215 195 192 185 176 167 162 156 165 172 170 162 159 154 152 154 155 160 157 156 158 155 151 144 137 122 92 114 97 70
232 238 237 242 245 254 262 284 294 296 301 300 288 261 214 197 188 187 185 179 185 177 183 182 171 161 157 156 157 155 158 160 160 162 164 163 158 153 152 142 121 64 65 78
Height
1505 1502 1502 1500 1500 1501 1503 1507 1512 1512 1512 1514 1516 1517 1520 1525 1528 1530 1533 1535 1537 1539 1541 1542 1543 1544 1545 1545 1546 1547 1548 1548 1549 1550 1551 1551 1551 1552 1552 1553 1553 1554 1554 1555
1503 1501 1499 1500 1502 1504 1505 1509 1511 1513 1514 1514 1515 1516 1517 1522 1525 1527 1530 1533 1535 1537 1540 1541 1542 1543 1544 1545 1546 1547 1547 1548 1549 1549 1550 1550 1551 1551 1552 1552 1552 1552 1553 1553
1500 1499 1502 1503 1505 1506 1506 1507 1509 1513 1515 1513 1514 1517 1517 1519 1523 1526 1528 1530 1533 1535 1537 1539 1541 1542 1544 1544 1545 1547 1547 1547 1548 1549 1549 1550 1550 1550 1551 1551 1551 1551 1551 1551
1498 1500 1503 1503 1504 1503 1508 1503 1506 1511 1514 1514 1516 1520 1514 1513 1518 1521 1525 1527 1530 1533 1536 1538 1539 1541 1543 1544 1545 1546 1546 1547 1547 1548 1549 1549 1550 1550 1550 1550 1549 1549 1549 1550
1500 1500 1502 1503 1502 1502 1503 1504 1506 1509 1511 1513 1513 1518 1511 1511 1515 1516 1520 1524 1527 1531 1534 1536 1538 1540 1542 1543 1544 1545 1545 1546 1546 1547 1547 1547 1548 1548 1548 1548 1548 1547 1548 1548
1497 1500 1500 1500 1501 1503 1506 1508 1510 1509 1508 1523 1516 1519 1516 1506 1510 1511 1516 1521 1525 1529 1532 1534 1537 1539 1540 1542 1543 1544 1544 1545 1545 1545 1546 1546 1546 1546 1546 1546 1546 1546 1546 1546
1502 1499 1500 1501 1503 1506 1505 1511 1521 1524 1524 1522 1512 1518 1513 1504 1507 1510 1514 1519 1523 1527 1530 1533 1535 1537 1539 1541 1542 1543 1543 1544 1544 1545 1545 1545 1545 1545 1545 1545 1545 1544 1545 1545
1504 1505 1498 1498 1498 1502 1503 1504 1520 1530 1526 1515 1516 1516 1505 1504 1509 1511 1514 1518 1522 1525 1529 1531 1534 1536 1538 1539 1541 1542 1542 1543 1543 1543 1543 1543 1544 1544 1544 1543 1544 1543 1543 1543
1496 1500 1496 1498 1497 1497 1503 1503 1496 1507 1513 1517 1511 1507 1502 1504 1507 1510 1513 1517 1520 1524 1527 1530 1532 1535 1536 1538 1539 1540 1540 1541 1542 1543 1542 1542 1542 1542 1542 1542 1542 1542 1541 1541
1490 1499 1495 1498 1499 1501 1497 1496 1503 1508 1524 1526 1516 1512 1507 1503 1505 1507 1511 1515 1519 1522 1526 1529 1531 1533 1535 1537 1538 1539 1540 1540 1541 1541 1542 1542 1541 1541 1541 1541 1541 1540 1540 1539
1489 1497 1498 1497 1499 1498 1503 1503 1502 1502 1506 1519 1522 1512 1494 1498 1501 1504 1508 1513 1517 1520 1524 1527 1529 1532 1534 1536 1537 1538 1538 1539 1539 1540 1540 1540 1540 1540 1540 1540 1539 1539 1538 1538
1492 1492 1497 1495 1494 1494 1493 1495 1500 1510 1513 1510 1511 1508 1494 1497 1500 1504 1507 1512 1516 1519 1522 1525 1528 1530 1532 1534 1536 1537 1537 1538 1538 1539 1539 1539 1539 1539 1539 1538 1538 1537 1537 1537
1494 1496 1506 1505 1502 1498 1496 1495 1495 1496 1502 1506 1510 1506 1496 1499 1501 1505 1507 1511 1515 1519 1522 1524 1527 1529 1531 1533 1534 1535 1536 1537 1537 1537 1537 1537 1538 1537 1537 1537 1537 1536 1536 1536
1496 1493 1497 1500 1494 1491 1496 1497 1495 1496 1499 1503 1503 1498 1495 1498 1501 1504 1508 1511 1514 1518 1521 1523 1525 1528 1530 1531 1532 1534 1535 1535 1536 1536 1536 1536 1536 1536 1536 1536 1535 1535 1535 1535
1494 1494 1493 1489 1487 1488 1491 1493 1495 1496 1494 1496 1495 1495 1494 1495 1500 1504 1507 1510 1513 1516 1519 1521 1523 1525 1527 1529 1530 1532 1533 1533 1534 1534 1535 1535 1534 1534 1534 1534 1534 1534 1534 1534
1494 1494 1494 1494 1490 1490 1491 1490 1492 1493 1493 1493 1493 1494 1492 1496 1500 1503 1506 1509 1512 1514 1517 1519 1521 1523 1525 1527 1529 1530 1531 1532 1532 1533 1533 1533 1533 1533 1533 1533 1533 1533 1533 1533
1493 1496 1498 1495 1491 1493 1496 1489 1489 1491 1490 1491 1494 1493 1493 1496 1499 1502 1505 1507 1510 1512 1515 1517 1518 1520 1522 1524 1526 1528 1529 1530 1531 1532 1532 1532 1532 1532 1532 1532 1532 1532 1532 1532
1497 1497 1495 1492 1498 1509 1489 1483 1485 1488 1489 1490 1491 1492 1494 1497 1499 1502 1505 1507 1509 1511 1512 1514 1517 1519 1520 1522 1523 1525 1526 1528 1529 1530 1530 1530 1530 1531 1531 1531 1531 1531 1531 1531
1495 1497 1494 1492 1496 1493 1488 1485 1486 1488 1491 1491 1491 1493 1495 1497 1498 1501 1504 1505 1507 1509 1510 1512 1514 1517 1518 1520 1521 1522 1524 1525 1526 1527 1528 1529 1529 1529 1529 1529 1529 1530 1530 1530
1495 1496 1493 1493 1497 1497 1486 1483 1486 1489 1492 1491 1492 1493 1495 1496 1494 1497 1502 1504 1505 1507 1508 1510 1512 1514 1515 1517 1519 1521 1521 1523 1524 1525 1525 1526 1526 1527 1527 1528 1528 1528 1528 1528
1493 1495 1493 1492 1493 1484 1481 1484 1487 1495 1492 1492 1493 1494 1495 1496 1496 1499 1501 1503 1504 1505 1507 1509 1510 1512 1513 1515 1517 1518 1519 1520 1522 1523 1523 1523 1523 1524 1525 1525 1526 1526 1526 1527
1486 1487 1491 1489 1492 1489 1484 1485 1487 1490 1492 1492 1493 1494 1495 1497 1497 1498 1500 1501 1502 1504 1506 1507 1508 1510 1512 1513 1515 1516 1517 1518 1520 1521 1521 1521 1521 1522 1523 1523 1524 1524 1525 1525
1483 1482 1480 1483 1485 1486 1487 1489 1491 1492 1492 1492 1492 1493 1494 1495 1496 1497 1499 1500 1502 1503 1505 1506 1508 1509 1510 1512 1513 1514 1515 1516 1517 1518 1519 1519 1520 1520 1521 1522 1523 1523 1524 1525
1485 1487 1485 1486 1485 1487 1489 1490 1491 1491 1491 1491 1492 1492 1493 1494 1495 1497 1498 1499 1501 1502 1504 1505 1507 1508 1509 1510 1511 1512 1513 1514 1515 1516 1517 1518 1519 1519 1520 1520 1522 1523 1523 1524
1484 1485 1484 1485 1487 1488 1489 1490 1491 1491 1490 1490 1490 1491 1491 1492 1493 1495 1496 1497 1499 1501 1502 1503 1504 1506 1507 1508 1509 1510 1511 1512 1513 1514 1516 1517 1517 1517 1518 1519 1520 1521 1522 1522
1485 1485 1483 1483 1486 1487 1488 1489 1489 1489 1489 1489 1489 1489 1490 1491 1492 1493 1494 1496 1497 1498 1500 1501 1502 1503 1505 1506 1508 1509 1509 1510 1511 1513 1514 1515 1516 1517 1517 1518 1519 1519 1520 1520